Weather History for Jacksonville, IL

Change the Weather History Date:

Monday, February 25, 2013

  Actual Average (KSPI) Record (KSPI)
Temperature  
Mean Temperature 34 °F 35 °F  
Max Temperature 43 °F 44 °F 72 °F (2000)
Min Temperature 25 °F 26 °F -4 °F (1963)
Degree Days  
Heating Degree Days 31 30  
Month to date heating degree days 857  
Since 1 July heating degree days 4183  
Cooling Degree Days 0 0  
Month to date cooling degree days 0  
Year to date cooling degree days 0  
Moisture  
Dew Point 30 °F    
Average Humidity 80    
Maximum Humidity 93    
Minimum Humidity 66    
Precipitation  
Precipitation 0.00 in 0.07 in 1.57 in (1899)
Month to date precipitation 1.58  
Year to date precipitation 3.40  
Snow  
Snow 0.00 in 0.10 in 6.60 in (1993)
Month to date snowfall 5.0  
Since 1 July snowfall 17.6  
Snow Depth -    
Sea Level Pressure  
Sea Level Pressure 29.99 in    
Wind  
Wind Speed 10 mph (ENE)    
Max Wind Speed 23 mph    
Max Gust Speed 30 mph    
Visibility 9 miles    
Events      
T = Trace of Precipitation, MM = Missing Value Source: NWS Daily Summary

Daily Weather History Graph

Daily Weather History Graph

Search for Another Location

Airport:

Trip Planner

Search our weather history database for the weather conditions in past years. The results will help you decide how hot, cold, wet, or windy it might be!

Date:

Astronomy

Feb. 25, 2013 Rise Set
Actual Time 6:39 AM CST 5:48 PM CST
Civil Twilight 6:12 AM CST 6:16 PM CST
Nautical Twilight 5:41 AM CST 6:47 PM CST
Astronomical Twilight 5:09 AM CST 7:18 PM CST
Moon 6:02 PM CST (2/25) 6:09 AM CST (2/25)
Length of Visible Light 12h 03m
Length of Day
11h 09m
Full, 100% of the Moon is Illuminated
Feb 25
Full
Feb 25
Full
Mar 4
Last Quarter
Mar 11
New
Mar 19
First Quarter

Hourly Weather History & Observations

Time (CST) Temp. Windchill Dew Point Humidity Pressure Visibility Wind Dir Wind Speed Gust Speed Precip Events Conditions
12:15 AM 28.4 °F 20.4 °F 25.2 °F 88% 30.08 in 7.0 mi East 8.1 mph - N/A   Clear
12:35 AM 27.3 °F 20.9 °F 24.3 °F 88% 30.08 in 7.0 mi East 5.8 mph - N/A   Clear
12:55 AM 27.0 °F 19.5 °F 24.4 °F 90% 30.09 in 7.0 mi East 6.9 mph - N/A   Clear
1:15 AM 27.7 °F 20.4 °F 24.8 °F 89% 30.09 in 7.0 mi East 6.9 mph - N/A   Clear
1:35 AM 27.9 °F 22.6 °F 24.8 °F 88% 30.10 in 7.0 mi ESE 4.6 mph - N/A   Clear
1:55 AM 28.0 °F 22.8 °F 24.8 °F 88% 30.10 in 7.0 mi East 4.6 mph - N/A   Clear
2:15 AM 26.6 °F 21.2 °F 24.3 °F 91% 30.10 in 5.0 mi East 4.6 mph - N/A   Clear
2:35 AM 26.4 °F 19.8 °F 24.4 °F 92% 30.10 in 5.0 mi East 5.8 mph - N/A   Clear
2:55 AM 25.9 °F 17.4 °F 24.1 °F 93% 30.09 in 5.0 mi East 8.1 mph - N/A   Clear
3:15 AM 25.5 °F 17.8 °F 23.7 °F 93% 30.08 in 5.0 mi East 6.9 mph - N/A   Clear
3:35 AM 25.9 °F 17.4 °F 24.1 °F 93% 30.07 in 5.0 mi ESE 8.1 mph - N/A   Clear
3:55 AM 27.7 °F 18.8 °F 25.7 °F 92% 30.06 in 7.0 mi ESE 9.2 mph - N/A   Clear
4:15 AM 27.7 °F 20.4 °F 24.8 °F 89% 30.07 in 7.0 mi East 6.9 mph - N/A   Clear
4:35 AM 27.5 °F 20.2 °F 24.8 °F 90% 30.09 in 7.0 mi East 6.9 mph - N/A   Clear
4:55 AM 28.0 °F 18.6 °F 25.2 °F 89% 30.09 in 7.0 mi East 10.4 mph - N/A   Clear
5:15 AM 27.5 °F 18.6 °F 24.8 °F 90% 30.08 in 7.0 mi East 9.2 mph - N/A   Clear
5:35 AM 26.2 °F 18.6 °F 23.7 °F 90% 30.07 in 7.0 mi East 6.9 mph - N/A   Clear
5:55 AM 27.0 °F 18.0 °F 24.8 °F 92% 30.07 in 7.0 mi East 9.2 mph - N/A   Clear
6:15 AM 27.0 °F 18.7 °F 24.4 °F 90% 30.06 in 7.0 mi East 8.1 mph - N/A   Clear
6:35 AM 26.4 °F 17.3 °F 24.1 °F 91% 30.05 in 5.0 mi ENE 9.2 mph - N/A   Clear
6:55 AM 26.4 °F 17.3 °F 24.1 °F 91% 30.06 in 5.0 mi ENE 9.2 mph - N/A   Clear
7:15 AM 27.9 °F 19.8 °F 25.3 °F 90% 30.06 in 5.0 mi East 8.1 mph - N/A   Clear
7:35 AM 29.1 °F 20.6 °F 26.2 °F 89% 30.07 in 5.0 mi East 9.2 mph - N/A   Clear
7:55 AM 29.8 °F 22.2 °F 26.6 °F 88% 30.07 in 5.0 mi East 8.1 mph - N/A   Clear
8:15 AM 31.8 °F 23.3 °F 27.9 °F 85% 30.06 in 7.0 mi East 10.4 mph - N/A   Clear
8:35 AM 33.8 °F 24.8 °F 28.4 °F 81% 30.06 in 7.0 mi ESE 12.7 mph - N/A   Clear
8:55 AM 35.1 °F 26.9 °F 29.1 °F 79% 30.05 in 10.0 mi East 11.5 mph - N/A   Clear
9:15 AM 36.1 °F 27.7 °F 29.7 °F 77% 30.05 in 10.0 mi East 12.7 mph - N/A   Clear
9:35 AM 36.9 °F 28.2 °F 30.2 °F 77% 30.05 in 7.0 mi East 13.8 mph - N/A   Clear
9:55 AM 37.6 °F 30.0 °F 30.7 °F 76% 30.06 in 10.0 mi East 11.5 mph - N/A   Clear
10:15 AM 38.5 °F 30.7 °F 31.1 °F 75% 30.06 in 10.0 mi East 12.7 mph - N/A   Clear
10:35 AM 39.2 °F 32.5 °F 31.5 °F 74% 30.07 in 10.0 mi East 10.4 mph - N/A   Clear
10:55 AM 40.1 °F 34.1 °F 31.6 °F 72% 30.07 in 10.0 mi East 9.2 mph - N/A   Clear
11:15 AM 40.1 °F 33.6 °F 31.8 °F 72% 30.07 in 10.0 mi East 10.4 mph - N/A   Clear
11:35 AM 40.8 °F 34.5 °F 32.0 °F 71% 30.06 in 10.0 mi East 10.4 mph - N/A   Clear
11:55 AM 41.4 °F 35.2 °F 32.0 °F 69% 30.05 in 10.0 mi East 10.4 mph - N/A   Clear
12:15 PM 42.4 °F 36.5 °F 32.0 °F 67% 30.05 in 10.0 mi East 10.4 mph - N/A   Clear
12:35 PM 42.8 °F 37.0 °F 32.0 °F 66% 30.04 in 10.0 mi East 10.4 mph - N/A   Clear
12:55 PM 42.4 °F 36.5 °F 32.4 °F 68% 30.02 in 10.0 mi ENE 10.4 mph - N/A   Clear
1:15 PM 42.8 °F 38.0 °F 33.8 °F 70% 30.02 in 10.0 mi ENE 8.1 mph - N/A   Clear
1:35 PM 43.2 °F 37.0 °F 33.4 °F 69% 30.01 in 10.0 mi ENE 11.5 mph - N/A   Clear
1:55 PM 43.3 °F 37.7 °F 33.4 °F 68% 29.98 in 10.0 mi ENE 10.4 mph - N/A   Clear
2:15 PM 42.8 °F 34.8 °F 33.1 °F 69% 29.95 in 10.0 mi NE 17.3 mph - N/A   Clear
2:35 PM 43.0 °F 35.7 °F 33.1 °F 68% 29.95 in 10.0 mi ENE 15.0 mph 20.7 mph N/A   Clear
2:55 PM 43.0 °F 36.0 °F 34.5 °F 72% 29.94 in 10.0 mi NE 13.8 mph 17.3 mph N/A   Clear
3:15 PM 42.8 °F 35.1 °F 33.8 °F 70% 29.94 in 10.0 mi NE 16.1 mph - N/A   Clear
3:35 PM 42.4 °F 34.1 °F 34.0 °F 72% 29.93 in 10.0 mi NE 18.4 mph - N/A   Clear
3:55 PM 41.9 °F 34.0 °F 33.8 °F 73% 29.92 in 10.0 mi NE 16.1 mph 24.2 mph N/A   Clear
4:15 PM 41.9 °F 33.4 °F 32.5 °F 69% 29.90 in 10.0 mi NE 18.4 mph - N/A   Clear
4:35 PM 41.5 °F 33.8 °F 33.4 °F 73% 29.90 in 10.0 mi NE 15.0 mph 18.4 mph N/A   Clear
4:55 PM 41.0 °F 34.3 °F 32.9 °F 73% 29.90 in 10.0 mi NE 11.5 mph - N/A   Clear
5:15 PM 40.8 °F 32.6 °F 33.8 °F 76% 29.89 in 10.0 mi NE 16.1 mph - N/A   Clear
5:35 PM 40.3 °F 33.9 °F 33.8 °F 78% 29.91 in 10.0 mi NE 10.4 mph - N/A   Clear
5:55 PM 40.1 °F 32.0 °F 33.8 °F 78% 29.89 in 10.0 mi NNE 15.0 mph - N/A   Clear
6:15 PM 40.1 °F 31.6 °F 33.8 °F 78% 29.87 in 10.0 mi NNE 16.1 mph 20.7 mph N/A   Clear
6:35 PM 39.6 °F 31.7 °F 33.8 °F 80% 29.89 in 10.0 mi NE 13.8 mph - N/A   Clear
6:55 PM 40.1 °F 31.6 °F 33.8 °F 78% 29.87 in 10.0 mi NE 16.1 mph - N/A   Scattered Clouds
7:15 PM 39.7 °F 30.6 °F 33.6 °F 79% 29.86 in 10.0 mi NE 18.4 mph - N/A   Mostly Cloudy
7:35 PM 39.4 °F 31.4 °F 33.4 °F 79% 29.87 in 10.0 mi NE 13.8 mph 23.0 mph N/A   Overcast
7:55 PM 39.4 °F 31.1 °F 33.1 °F 78% 29.90 in 10.0 mi NE 15.0 mph - N/A   Overcast
8:15 PM 38.8 °F 30.8 °F 32.9 °F 79% 29.93 in 10.0 mi NE 13.8 mph - N/A   Mostly Cloudy
8:35 PM 38.5 °F 30.3 °F 32.7 °F 80% 29.91 in 10.0 mi NE 13.8 mph - N/A   Mostly Cloudy
8:55 PM 38.5 °F 29.6 °F 32.4 °F 79% 29.89 in 10.0 mi ENE 16.1 mph - N/A   Mostly Cloudy
9:15 PM 38.1 °F 27.6 °F 32.0 °F 79% 29.87 in 10.0 mi NE 21.9 mph 25.3 mph N/A   Scattered Clouds
9:35 PM 37.9 °F 27.6 °F 32.0 °F 79% 29.83 in 10.0 mi NE 20.7 mph - N/A   Scattered Clouds
9:55 PM 38.3 °F 27.6 °F 31.8 °F 77% 29.81 in 10.0 mi NE 23.0 mph 29.9 mph N/A   Mostly Cloudy
10:15 PM 37.9 °F 27.3 °F 31.8 °F 79% 29.81 in 10.0 mi ENE 21.9 mph 27.6 mph N/A   Overcast
10:35 PM 37.9 °F 27.6 °F 31.8 °F 79% 29.80 in 10.0 mi NE 20.7 mph 28.8 mph N/A   Overcast
10:55 PM 37.9 °F 28.2 °F 31.6 °F 78% 29.80 in 10.0 mi NE 18.4 mph 24.2 mph N/A   Overcast
11:15 PM 37.9 °F 28.2 °F 31.5 °F 77% 29.79 in 10.0 mi NE 18.4 mph 25.3 mph N/A   Overcast
11:35 PM 37.6 °F 26.6 °F 31.6 °F 79% 29.77 in 10.0 mi NE 23.0 mph 27.6 mph N/A   Overcast
11:55 PM 37.6 °F 27.4 °F 31.6 °F 79% 29.77 in 10.0 mi NE 19.6 mph 28.8 mph N/A   Overcast